{"data":{"norad_id":68182,"intl_designator":"2026-050R","name":"STARLINK-37082","alt_names":[],"object_type":"PAYLOAD","status":"ACTIVE","operator":null,"country":"US","launch_date":"2026-03-14","launch_site_code":"AFETR","launch_vehicle":null,"mission":null,"orbit_class":"UNKNOWN","rcs_meters":null,"size_class":null,"mass_kg":null,"dimensions":null,"purposes":["comms"],"wikipedia_slug":null,"has_3d_model":false,"image_url":null,"decayed_at":null,"tle_current":{"epoch":"2026-09-20T00:43:38.898912Z","epoch_age_seconds":96727,"freshness":"FRESH","line1":"1 68182U 26050R   26263.03031133  .00027434  00000+0  81971-3 0  9999","line2":"2 68182  53.1594  80.0849 0001113  60.8708 299.2406 15.34415125 30497","mean_motion":15.34415125,"eccentricity":0.0001113,"inclination_deg":53.1594,"raan_deg":80.0849,"arg_perigee_deg":60.8708,"mean_anomaly_deg":299.2406,"bstar":0.00081971,"rev_number":3049,"period_min":93.846833007463,"perigee_km":461.89690537361,"apogee_km":463.41966640425,"semimajor_km":6840.7952858889,"source":"CELESTRAK","updated_at":"2026-09-20T09:00:43.801722Z"}}}